Location: Cold Norton
(51.6667°N, 0.6667°E)
Time: 17:46:46
(UTC+00:00)

SWARM A - Pass Details

Date: 18 November 2025
Orbit: 426 x 429 km, 87.3° (Epoch: 10 December)

Event Time Altitude Azimuth Distance (km) Brightness Sun altitude
Rises 16:42:18 0° 357° (N) 2,412 7.8 -6.2°
Reaches altitude 10° 16:44:21 10° 358° (N) 1,538 6.8 -6.5°
Maximum altitude 16:47:40 88° 83° (E) 436 4.2 -7.0°
Drops below altitude 10° 16:50:58 10° 178° (S) 1,520 7.3 -7.5°
Sets 16:52:59 0° 179° (S) 2,380 8.3 -7.7°
